Time,TemperatureF,DewpointF,PressureIn,WindDirection,WindDirectionDegrees,WindSpeedMPH,WindSpeedGustMPH,Humidity,HourlyPrecipIn,Conditions,Clouds,dailyrainin,SoftwareType,DateUTC
2013-01-08 00:04:00,22.0,19.0,30.43,NW,317,0.0,0.0,88,0.00,,,0.01,,2013-01-08 05:04:00,
2013-01-08 00:12:00,22.0,19.0,30.43,NW,317,0.0,0.0,88,0.00,,,0.01,,2013-01-08 05:12:00,
2013-01-08 00:22:00,22.0,19.0,30.43,NW,317,0.0,0.0,88,0.00,,,0.01,,2013-01-08 05:22:00,
2013-01-08 00:33:00,22.0,20.0,30.42,NW,317,0.0,0.0,90,0.00,,,0.01,,2013-01-08 05:33:00,
2013-01-08 00:42:00,22.0,20.0,30.42,NW,317,0.0,0.0,90,0.00,,,0.01,,2013-01-08 05:42:00,
2013-01-08 00:53:00,22.0,19.0,30.42,NW,317,0.0,0.0,89,0.00,,,0.01,,2013-01-08 05:53:00,
2013-01-08 01:02:00,22.0,20.0,30.43,NW,318,0.0,0.0,90,0.00,,,0.01,,2013-01-08 06:02:00,
2013-01-08 01:12:00,22.0,20.0,30.43,NW,318,0.0,0.0,90,0.00,,,0.01,,2013-01-08 06:12:00,
2013-01-08 01:22:00,22.0,19.0,30.43,NW,316,0.0,0.0,89,0.00,,,0.01,,2013-01-08 06:22:00,
2013-01-08 01:33:00,22.0,20.0,30.43,NW,318,0.0,0.0,90,0.00,,,0.01,,2013-01-08 06:33:00,
2013-01-08 01:42:00,22.0,20.0,30.43,NW,318,0.0,0.0,90,0.00,,,0.01,,2013-01-08 06:42:00,
2013-01-08 01:52:00,21.0,19.0,30.44,NW,317,0.0,0.0,90,0.00,,,0.01,,2013-01-08 06:52:00,
2013-01-08 02:02:00,21.0,19.0,30.43,NW,317,0.0,0.0,91,0.00,,,0.01,,2013-01-08 07:02:00,
2013-01-08 02:12:00,21.0,19.0,30.43,NW,317,0.0,0.0,91,0.00,,,0.01,,2013-01-08 07:12:00,
2013-01-08 02:22:00,21.0,19.0,30.43,NW,317,0.0,0.0,91,0.00,,,0.01,,2013-01-08 07:22:00,
2013-01-08 02:32:00,22.0,20.0,30.43,NW,316,0.0,0.0,91,0.00,,,0.01,,2013-01-08 07:32:00,
2013-01-08 02:42:00,22.0,20.0,30.43,NW,316,0.0,0.0,91,0.00,,,0.01,,2013-01-08 07:42:00,
2013-01-08 02:52:00,24.0,23.0,30.43,NW,317,0.0,0.0,94,0.00,,,0.01,,2013-01-08 07:52:00,
2013-01-08 03:02:00,29.0,27.0,30.43,NW,317,0.0,0.0,93,0.00,,,0.01,,2013-01-08 08:02:00,
2013-01-08 03:12:00,29.0,27.0,30.43,NW,317,0.0,0.0,93,0.00,,,0.01,,2013-01-08 08:12:00,
2013-01-08 03:22:00,32.0,29.0,30.42,West,270,2.0,0.0,88,0.00,,,0.01,,2013-01-08 08:22:00,
2013-01-08 03:32:00,32.0,29.0,30.42,West,270,2.0,0.0,88,0.00,,,0.01,,2013-01-08 08:32:00,
2013-01-08 03:42:00,32.0,29.0,30.42,West,270,2.0,0.0,88,0.00,,,0.01,,2013-01-08 08:42:00,
2013-01-08 03:52:00,38.0,32.0,30.40,SW,225,7.0,7.0,79,0.00,,,0.01,,2013-01-08 08:52:00,
2013-01-08 04:02:00,39.0,32.0,30.40,WSW,245,5.0,5.0,76,0.00,,,0.01,,2013-01-08 09:02:00,
2013-01-08 04:12:00,39.0,32.0,30.40,WSW,245,5.0,5.0,76,0.00,,,0.01,,2013-01-08 09:12:00,
2013-01-08 04:22:00,39.0,32.0,30.40,WSW,245,5.0,5.0,76,0.00,,,0.01,,2013-01-08 09:22:00,
2013-01-08 04:32:00,39.0,32.0,30.40,WSW,245,5.0,5.0,76,0.00,,,0.01,,2013-01-08 09:32:00,
2013-01-08 04:42:00,39.0,32.0,30.40,WSW,245,5.0,5.0,76,0.00,,,0.01,,2013-01-08 09:42:00,
2013-01-08 04:53:00,39.0,34.0,30.40,WSW,239,6.0,20.0,82,0.00,,,0.01,,2013-01-08 09:53:00,
2013-01-08 05:03:00,39.0,34.0,30.40,WSW,256,6.0,20.0,83,0.00,,,0.01,,2013-01-08 10:03:00,
2013-01-08 05:12:00,39.0,34.0,30.40,WSW,256,6.0,20.0,83,0.00,,,0.01,,2013-01-08 10:12:00,
2013-01-08 05:22:00,39.0,35.0,30.41,WSW,249,8.0,20.0,84,0.00,,,0.01,,2013-01-08 10:22:00,
2013-01-08 05:32:00,39.0,34.0,30.41,WSW,247,3.0,15.0,83,0.00,,,0.01,,2013-01-08 10:32:00,
2013-01-08 05:42:00,39.0,34.0,30.41,WSW,247,3.0,15.0,83,0.00,,,0.01,,2013-01-08 10:42:00,
2013-01-08 05:52:00,39.0,34.0,30.41,West,259,6.0,15.0,82,0.00,,,0.01,,2013-01-08 10:52:00,
2013-01-08 06:02:00,39.0,34.0,30.41,WSW,241,6.0,15.0,81,0.00,,,0.01,,2013-01-08 11:02:00,
2013-01-08 06:12:00,39.0,34.0,30.41,WSW,241,6.0,15.0,81,0.00,,,0.01,,2013-01-08 11:12:00,
2013-01-08 06:22:00,39.0,34.0,30.41,SW,234,13.0,15.0,81,0.00,,,0.01,,2013-01-08 11:22:00,
2013-01-08 06:33:00,38.0,33.0,30.42,WSW,257,3.0,7.0,81,0.00,,,0.01,,2013-01-08 11:33:00,
2013-01-08 06:42:00,38.0,33.0,30.42,WSW,257,3.0,7.0,81,0.00,,,0.01,,2013-01-08 11:42:00,
2013-01-08 06:53:00,38.0,33.0,30.43,WSW,242,3.0,7.0,82,0.00,,,0.01,,2013-01-08 11:53:00,
2013-01-08 07:03:00,38.0,33.0,30.43,West,266,1.0,7.0,81,0.00,,,0.01,,2013-01-08 12:03:00,
2013-01-08 07:12:00,38.0,33.0,30.43,West,266,1.0,7.0,81,0.00,,,0.01,,2013-01-08 12:12:00,
2013-01-08 07:22:00,38.0,32.0,30.44,WSW,253,6.0,7.0,80,0.00,,,0.01,,2013-01-08 12:22:00,
2013-01-08 07:33:00,38.0,32.0,30.44,WSW,246,6.0,7.0,80,0.00,,,0.01,,2013-01-08 12:33:00,
2013-01-08 07:42:00,38.0,32.0,30.44,WSW,246,6.0,7.0,80,0.00,,,0.01,,2013-01-08 12:42:00,
2013-01-08 07:53:00,38.0,32.0,30.44,WSW,239,7.0,7.0,80,0.00,,,0.01,,2013-01-08 12:53:00,
2013-01-08 08:03:00,39.0,33.0,30.45,WSW,251,10.0,10.0,80,0.00,,,0.01,,2013-01-08 13:03:00,
2013-01-08 08:12:00,39.0,33.0,30.45,WSW,251,10.0,10.0,80,0.00,,,0.01,,2013-01-08 13:12:00,
2013-01-08 08:22:00,39.0,33.0,30.45,WSW,251,10.0,10.0,80,0.00,,,0.01,,2013-01-08 13:22:00,
2013-01-08 08:33:00,39.0,33.0,30.46,WNW,285,5.0,12.0,79,0.00,,,0.01,,2013-01-08 13:33:00,
2013-01-08 08:43:00,39.0,33.0,30.46,WNW,285,5.0,12.0,79,0.00,,,0.01,,2013-01-08 13:43:00,
2013-01-08 08:52:00,40.0,34.0,30.46,SW,226,8.0,12.0,78,0.00,,,0.01,,2013-01-08 13:52:00,
2013-01-08 09:02:00,40.0,33.0,30.46,WSW,252,11.0,12.0,77,0.00,,,0.01,,2013-01-08 14:02:00,
2013-01-08 09:12:00,40.0,33.0,30.46,WSW,252,11.0,12.0,77,0.00,,,0.01,,2013-01-08 14:12:00,
2013-01-08 09:23:00,40.0,33.0,30.46,WSW,242,11.0,12.0,76,0.00,,,0.01,,2013-01-08 14:23:00,
2013-01-08 09:33:00,40.0,33.0,30.46,WSW,247,15.0,15.0,77,0.00,,,0.01,,2013-01-08 14:33:00,
2013-01-08 09:43:00,40.0,33.0,30.46,WSW,247,15.0,15.0,77,0.00,,,0.01,,2013-01-08 14:43:00,
2013-01-08 09:53:00,41.0,34.0,30.47,WSW,249,4.0,13.0,77,0.00,,,0.01,,2013-01-08 14:53:00,
2013-01-08 10:03:00,42.0,35.0,30.46,WSW,245,10.0,13.0,75,0.00,,,0.01,,2013-01-08 15:03:00,
2013-01-08 10:12:00,42.0,35.0,30.46,WSW,245,10.0,13.0,75,0.00,,,0.01,,2013-01-08 15:12:00,
2013-01-08 10:22:00,42.0,34.0,30.47,WSW,246,12.0,13.0,74,0.00,,,0.01,,2013-01-08 15:22:00,
2013-01-08 10:33:00,42.0,34.0,30.46,West,260,4.0,16.0,74,0.00,,,0.01,,2013-01-08 15:33:00,
2013-01-08 10:43:00,42.0,34.0,30.46,West,260,4.0,16.0,74,0.00,,,0.01,,2013-01-08 15:43:00,
2013-01-08 10:53:00,42.0,35.0,30.45,WSW,241,8.0,16.0,75,0.00,,,0.01,,2013-01-08 15:53:00,
2013-01-08 11:03:00,43.0,36.0,30.45,WSW,252,2.0,16.0,76,0.00,,,0.01,,2013-01-08 16:03:00,
2013-01-08 11:12:00,43.0,36.0,30.45,WSW,252,2.0,16.0,76,0.00,,,0.01,,2013-01-08 16:12:00,
2013-01-08 11:23:00,43.0,36.0,30.43,West,269,5.0,16.0,76,0.00,,,0.01,,2013-01-08 16:23:00,
2013-01-08 11:34:00,42.0,35.0,30.43,WSW,245,14.0,18.0,76,0.00,,,0.01,,2013-01-08 16:34:00,
2013-01-08 11:43:00,42.0,35.0,30.43,WSW,245,14.0,18.0,76,0.00,,,0.01,,2013-01-08 16:43:00,
2013-01-08 11:53:00,43.0,36.0,30.42,West,270,7.0,18.0,77,0.00,,,0.01,,2013-01-08 16:53:00,
2013-01-08 12:03:00,43.0,37.0,30.41,WSW,246,11.0,18.0,78,0.00,,,0.01,,2013-01-08 17:03:00,
2013-01-08 12:13:00,43.0,37.0,30.41,WSW,246,11.0,18.0,78,0.00,,,0.01,,2013-01-08 17:13:00,
2013-01-08 12:23:00,43.0,36.0,30.40,WSW,249,5.0,18.0,77,0.00,,,0.01,,2013-01-08 17:23:00,
2013-01-08 12:33:00,44.0,37.0,30.40,WSW,237,7.0,13.0,76,0.00,,,0.01,,2013-01-08 17:33:00,
2013-01-08 12:43:00,44.0,37.0,30.40,WSW,237,7.0,13.0,76,0.00,,,0.01,,2013-01-08 17:43:00,
2013-01-08 12:53:00,44.0,37.0,30.39,WSW,248,4.0,13.0,75,0.00,,,0.01,,2013-01-08 17:53:00,
2013-01-08 13:04:00,44.0,37.0,30.38,WSW,238,5.0,13.0,75,0.00,,,0.01,,2013-01-08 18:04:00,
2013-01-08 13:13:00,44.0,37.0,30.38,WSW,238,5.0,13.0,75,0.00,,,0.01,,2013-01-08 18:13:00,
2013-01-08 13:23:00,44.0,35.0,30.37,West,268,5.0,13.0,71,0.00,,,0.01,,2013-01-08 18:23:00,
2013-01-08 13:33:00,45.0,35.0,30.37,West,278,5.0,9.0,67,0.00,,,0.01,,2013-01-08 18:33:00,
2013-01-08 13:43:00,45.0,35.0,30.37,West,278,5.0,9.0,67,0.00,,,0.01,,2013-01-08 18:43:00,
2013-01-08 13:53:00,44.0,34.0,30.37,WSW,248,18.0,18.0,67,0.00,,,0.01,,2013-01-08 18:53:00,
2013-01-08 14:03:00,44.0,35.0,30.37,WSW,242,11.0,11.0,70,0.00,,,0.01,,2013-01-08 19:03:00,
2013-01-08 14:12:00,44.0,35.0,30.37,WSW,242,11.0,11.0,70,0.00,,,0.01,,2013-01-08 19:12:00,
2013-01-08 14:23:00,44.0,35.0,30.38,West,274,0.0,9.0,70,0.00,,,0.01,,2013-01-08 19:23:00,
2013-01-08 14:33:00,44.0,35.0,30.38,WSW,246,4.0,15.0,71,0.00,,,0.01,,2013-01-08 19:33:00,
2013-01-08 14:42:00,44.0,35.0,30.38,WSW,246,4.0,15.0,71,0.00,,,0.01,,2013-01-08 19:42:00,
2013-01-08 14:53:00,44.0,35.0,30.37,West,268,5.0,15.0,71,0.00,,,0.01,,2013-01-08 19:53:00,
2013-01-08 15:03:00,44.0,36.0,30.37,West,263,0.0,15.0,72,0.00,,,0.01,,2013-01-08 20:03:00,
2013-01-08 15:12:00,44.0,36.0,30.37,West,263,0.0,15.0,72,0.00,,,0.01,,2013-01-08 20:12:00,
2013-01-08 15:23:00,45.0,36.0,30.38,WSW,253,6.0,15.0,71,0.00,,,0.01,,2013-01-08 20:23:00,
2013-01-08 15:33:00,45.0,36.0,30.38,WSW,253,6.0,15.0,71,0.00,,,0.01,,2013-01-08 20:33:00,
2013-01-08 15:43:00,45.0,36.0,30.38,WSW,253,6.0,15.0,71,0.00,,,0.01,,2013-01-08 20:43:00,
2013-01-08 15:53:00,44.0,35.0,30.38,West,272,3.0,9.0,71,0.00,,,0.01,,2013-01-08 20:53:00,
2013-01-08 16:03:00,44.0,36.0,30.37,SW,233,0.0,9.0,72,0.00,,,0.01,,2013-01-08 21:03:00,
2013-01-08 16:13:00,44.0,36.0,30.37,SW,233,0.0,9.0,72,0.00,,,0.01,,2013-01-08 21:13:00,
2013-01-08 16:23:00,43.0,35.0,30.37,WSW,253,4.0,9.0,74,0.00,,,0.01,,2013-01-08 21:23:00,
2013-01-08 16:33:00,42.0,35.0,30.37,WSW,253,3.0,9.0,76,0.00,,,0.01,,2013-01-08 21:33:00,
2013-01-08 16:43:00,42.0,35.0,30.37,WSW,253,3.0,9.0,76,0.00,,,0.01,,2013-01-08 21:43:00,
2013-01-08 16:53:00,42.0,35.0,30.37,WSW,253,3.0,9.0,76,0.00,,,0.01,,2013-01-08 21:53:00,
2013-01-08 17:03:00,41.0,35.0,30.37,WSW,252,6.0,9.0,78,0.00,,,0.01,,2013-01-08 22:03:00,
2013-01-08 17:12:00,41.0,35.0,30.37,WSW,252,6.0,9.0,78,0.00,,,0.01,,2013-01-08 22:12:00,
2013-01-08 17:23:00,41.0,35.0,30.37,WSW,252,6.0,9.0,78,0.00,,,0.01,,2013-01-08 22:23:00,
2013-01-08 17:33:00,41.0,35.0,30.37,WSW,252,6.0,9.0,78,0.00,,,0.01,,2013-01-08 22:33:00,
2013-01-08 17:53:00,40.0,35.0,30.39,SW,236,0.0,2.0,82,0.00,,,0.01,,2013-01-08 22:53:00,
2013-01-08 18:03:00,40.0,36.0,30.39,SW,229,1.0,2.0,84,0.00,,,0.01,,2013-01-08 23:03:00,
2013-01-08 18:13:00,40.0,36.0,30.39,SW,229,1.0,2.0,84,0.00,,,0.01,,2013-01-08 23:13:00,
2013-01-08 18:22:00,41.0,36.0,30.39,SW,229,5.0,5.0,82,0.00,,,0.01,,2013-01-08 23:22:00,
2013-01-08 18:33:00,41.0,36.0,30.40,West,260,2.0,4.0,81,0.00,,,0.01,,2013-01-08 23:33:00,
2013-01-08 18:43:00,41.0,36.0,30.40,West,260,2.0,4.0,81,0.00,,,0.01,,2013-01-08 23:43:00,
2013-01-08 18:53:00,41.0,36.0,30.40,West,260,2.0,4.0,81,0.00,,,0.01,,2013-01-08 23:53:00,
2013-01-08 19:03:00,41.0,36.0,30.40,WSW,242,0.0,4.0,83,0.00,,,0.01,,2013-01-09 00:03:00,
2013-01-08 19:12:00,41.0,36.0,30.40,WSW,242,0.0,4.0,83,0.00,,,0.01,,2013-01-09 00:12:00,
2013-01-08 19:22:00,40.0,36.0,30.40,WSW,244,3.0,4.0,85,0.00,,,0.01,,2013-01-09 00:22:00,
2013-01-08 19:33:00,40.0,36.0,30.41,WSW,240,3.0,9.0,87,0.00,,,0.01,,2013-01-09 00:33:00,
2013-01-08 19:42:00,40.0,36.0,30.41,WSW,240,3.0,9.0,87,0.00,,,0.01,,2013-01-09 00:42:00,
2013-01-08 19:52:00,40.0,36.0,30.41,WSW,240,3.0,9.0,87,0.00,,,0.01,,2013-01-09 00:52:00,
2013-01-08 20:02:00,40.0,36.0,30.41,WSW,240,3.0,9.0,87,0.00,,,0.01,,2013-01-09 01:02:00,
2013-01-08 20:12:00,40.0,36.0,30.41,WSW,240,3.0,9.0,87,0.00,,,0.01,,2013-01-09 01:12:00,
2013-01-08 20:33:00,40.0,37.0,30.42,WSW,245,0.0,4.0,89,0.00,,,0.01,,2013-01-09 01:33:00,
2013-01-08 20:43:00,40.0,37.0,30.42,WSW,245,0.0,4.0,89,0.00,,,0.01,,2013-01-09 01:43:00,
2013-01-08 20:53:00,39.0,36.0,30.42,WSW,245,0.0,4.0,89,0.00,,,0.01,,2013-01-09 01:53:00,
2013-01-08 21:02:00,38.0,36.0,30.42,WSW,245,0.0,4.0,91,0.00,,,0.01,,2013-01-09 02:02:00,
2013-01-08 21:12:00,38.0,36.0,30.42,WSW,245,0.0,4.0,91,0.00,,,0.01,,2013-01-09 02:12:00,
2013-01-08 21:22:00,38.0,36.0,30.42,WSW,245,0.0,4.0,91,0.00,,,0.01,,2013-01-09 02:22:00,
2013-01-08 21:33:00,37.0,35.0,30.42,WSW,245,0.0,0.0,91,0.00,,,0.01,,2013-01-09 02:33:00,
2013-01-08 21:43:00,37.0,35.0,30.42,WSW,245,0.0,0.0,91,0.00,,,0.01,,2013-01-09 02:43:00,
2013-01-08 21:53:00,36.0,34.0,30.42,WSW,245,0.0,0.0,92,0.00,,,0.01,,2013-01-09 02:53:00,
2013-01-08 22:03:00,36.0,34.0,30.42,WSW,245,0.0,0.0,92,0.00,,,0.01,,2013-01-09 03:03:00,
2013-01-08 22:12:00,36.0,34.0,30.42,WSW,245,0.0,0.0,92,0.00,,,0.01,,2013-01-09 03:12:00,
2013-01-08 22:22:00,35.0,33.0,30.42,WSW,245,0.0,0.0,93,0.00,,,0.01,,2013-01-09 03:22:00,
2013-01-08 22:33:00,34.0,32.0,30.42,WSW,245,0.0,0.0,93,0.00,,,0.01,,2013-01-09 03:33:00,
2013-01-08 22:43:00,34.0,32.0,30.42,WSW,245,0.0,0.0,93,0.00,,,0.01,,2013-01-09 03:43:00,
2013-01-08 22:52:00,33.0,31.0,30.42,WSW,245,0.0,0.0,94,0.00,,,0.01,,2013-01-09 03:52:00,
2013-01-08 23:02:00,34.0,33.0,30.42,WSW,245,0.0,0.0,95,0.00,,,0.01,,2013-01-09 04:02:00,
2013-01-08 23:12:00,34.0,33.0,30.42,WSW,245,0.0,0.0,95,0.00,,,0.01,,2013-01-09 04:12:00,
2013-01-08 23:22:00,33.0,31.0,30.41,WSW,245,0.0,0.0,94,0.00,,,0.01,,2013-01-09 04:22:00,
2013-01-08 23:32:00,33.0,32.0,30.41,WSW,245,0.0,0.0,95,0.00,,,0.00,,2013-01-09 04:32:00,
2013-01-08 23:42:00,33.0,31.0,30.41,WSW,245,0.0,0.0,94,0.00,,,0.00,,2013-01-09 04:42:00,
2013-01-08 23:52:00,33.0,31.0,30.41,WSW,245,0.0,0.0,94,0.00,,,0.00,,2013-01-09 04:52:00,